Location: *
(49.5667°N, 1.3667°W)
Time: 08:04:27
(UTC+00:00)

ERBS - Pass Details

Date: 20 September 2019
Orbit: 418 x 425 km, 57.0° (Epoch: 15 October)

Event Time Altitude Azimuth Distance (km) Brightness Sun altitude
Rises 19:16:23 0° 304° (WNW) 2,394 7.7 -11.7°
Reaches altitude 10° 19:18:33 10° 311° (NW) 1,525 6.2 -12.0°
Maximum altitude 19:21:50 42° 24° (NNE) 622 3.0 -12.5°
Enters shadow 19:23:41 21° 86° (E) 1,010 3.6 -12.8°
